Total_Precipitation_Accumulation
0.93 1.03 1.06 0.85 0.61 0.49 0.47 0.45 0.44 0.47 0.52 0.60 0.56 0.53 0.58 0.62 0.59 0.68 0.79 0.91 0.99 1.04 1.06 1.10 1.18 1.24 1.33 1.38 1.50 1.57 1.60 1.54 1.30 1.16 1.03 0.94 0.98 1.01 1.01 0.97 1.02 1.03 0.94
0.80 0.79 0.65 0.47 0.37 0.34 0.30 0.25 0.22 0.22 0.22 0.29 0.32 0.33 0.40 0.51 0.53 0.60 0.64 0.66 0.72 0.76 0.81 0.88 0.93 0.99 1.10 1.18 1.25 1.34 1.47 1.50 1.40 1.25 1.13 1.02 0.93 0.96 1.12 1.17 1.15 1.09 1.07
0.44 0.42 0.39 0.32 0.30 0.26 0.21 0.19 0.17 0.16 0.16 0.20 0.23 0.26 0.30 0.39 0.51 0.57 0.58 0.55 0.54 0.52 0.53 0.59 0.67 0.75 0.90 0.99 1.03 1.11 1.27 1.31 1.39 1.29 1.22 1.15 1.00 0.94 1.07 1.09 1.19 1.35 1.25
0.25 0.23 0.22 0.23 0.23 0.23 0.23 0.23 0.18 0.14 0.16 0.15 0.14 0.16 0.24 0.35 0.43 0.51 0.55 0.52 0.49 0.49 0.50 0.50 0.53 0.55 0.63 0.74 0.87 1.05 1.22 1.35 1.40 1.35 1.30 1.25 1.17 1.07 1.13 1.22 1.31 1.39 1.43
0.15 0.16 0.18 0.18 0.19 0.18 0.20 0.20 0.17 0.14 0.12 0.08 0.06 0.08 0.16 0.22 0.26 0.40 0.46 0.45 0.48 0.45 0.47 0.51 0.53 0.49 0.49 0.54 0.55 0.73 0.95 1.19 1.31 1.37 1.37 1.38 1.31 1.24 1.17 1.26 1.33 1.47 1.58
0.03 0.05 0.08 0.11 0.13 0.15 0.15 0.15 0.13 0.11 0.09 0.07 0.05 0.05 0.07 0.08 0.14 0.21 0.30 0.40 0.47 0.50 0.51 0.55 0.53 0.49 0.53 0.51 0.49 0.52 0.62 0.78 0.97 1.10 1.19 1.24 1.27 1.36 1.47 1.47 1.45 1.53 1.61
0.01 0.01 0.02 0.03 0.04 0.05 0.05 0.06 0.05 0.04 0.04 0.04 0.04 0.04 0.04 0.04 0.05 0.08 0.18 0.34 0.48 0.49 0.48 0.62 0.68 0.63 0.62 0.65 0.66 0.60 0.54 0.53 0.69 0.87 0.99 1.04 1.12 1.23 1.47 1.51 1.49 1.52 1.45
0.01 0.01 0.01 0.01 0.02 0.02 0.02 0.02 0.02 0.02 0.02 0.03 0.05 0.07 0.05 0.02 0.02 0.04 0.09 0.24 0.39 0.43 0.44 0.56 0.81 0.86 0.75 0.71 0.75 0.85 0.77 0.61 0.61 0.66 0.81 0.92 0.97 1.13 1.47 1.69 1.63 1.42 1.37
0.01 0.01 0.01 0.01 0.01 0.02 0.01 0.01 0.01 0.01 0.03 0.03 0.04 0.06 0.05 0.04 0.04 0.04 0.08 0.19 0.29 0.33 0.38 0.50 0.67 0.82 0.75 0.71 0.71 0.78 0.82 0.72 0.66 0.68 0.65 0.72 0.85 1.02 1.28 1.55 1.66 1.59 1.43
0.01 0.02 0.02 0.02 0.02 0.02 0.02 0.02 0.01 0.02 0.03 0.03 0.03 0.03 0.03 0.02 0.04 0.05 0.07 0.13 0.17 0.17 0.24 0.41 0.56 0.55 0.52 0.59 0.70 0.81 0.90 0.74 0.65 0.74 0.73 0.75 0.78 0.96 1.28 1.49 1.60 1.58 1.47
0.01 0.02 0.02 0.02 0.02 0.04 0.04 0.03 0.02 0.02 0.03 0.03 0.04 0.04 0.04 0.03 0.04 0.06 0.08 0.10 0.13 0.13 0.19 0.33 0.40 0.37 0.37 0.45 0.57 0.70 0.83 0.69 0.71 0.86 0.90 0.88 0.95 1.00 1.12 1.27 1.46 1.57 1.47
0.01 0.01 0.01 0.02 0.02 0.03 0.05 0.03 0.03 0.03 0.03 0.05 0.07 0.08 0.08 0.08 0.06 0.06 0.08 0.11 0.13 0.14 0.20 0.26 0.29 0.26 0.28 0.33 0.38 0.49 0.60 0.68 0.77 0.91 0.98 0.94 0.90 0.97 1.02 1.07 1.18 1.29 1.27
0.01 0.01 0.01 0.02 0.02 0.03 0.02 0.02 0.02 0.03 0.04 0.06 0.08 0.10 0.11 0.12 0.09 0.06 0.07 0.09 0.12 0.15 0.18 0.22 0.24 0.26 0.29 0.30 0.32 0.39 0.54 0.73 0.91 0.92 0.84 0.81 0.84 0.90 0.91 1.02 1.10 1.14 1.17
0.01 0.01 0.01 0.01 0.02 0.03 0.02 0.02 0.02 0.02 0.03 0.05 0.07 0.08 0.09 0.12 0.08 0.07 0.10 0.12 0.13 0.16 0.18 0.19 0.20 0.25 0.29 0.29 0.34 0.46 0.62 0.82 0.90 0.82 0.76 0.66 0.68 0.82 0.88 0.90 0.94 0.96 1.02
0.02 0.02 0.01 0.01 0.02 0.03 0.02 0.01 0.02 0.02 0.02 0.04 0.05 0.07 0.06 0.06 0.07 0.08 0.10 0.11 0.12 0.12 0.17 0.24 0.28 0.34 0.39 0.46 0.57 0.65 0.67 0.71 0.77 0.69 0.73 0.67 0.63 0.70 0.74 0.75 0.77 0.74 0.75
0.02 0.01 0.01 0.01 0.01 0.02 0.03 0.03 0.02 0.02 0.02 0.02 0.03 0.04 0.06 0.04 0.05 0.07 0.08 0.10 0.09 0.11 0.20 0.28 0.36 0.44 0.50 0.58 0.64 0.65 0.65 0.67 0.70 0.66 0.65 0.64 0.59 0.59 0.61 0.62 0.66 0.69 0.72
0.02 0.02 0.02 0.02 0.02 0.02 0.03 0.05 0.05 0.04 0.03 0.02 0.02 0.03 0.04 0.04 0.05 0.06 0.08 0.09 0.09 0.12 0.18 0.29 0.48 0.54 0.52 0.58 0.63 0.61 0.53 0.47 0.48 0.50 0.49 0.48 0.46 0.47 0.51 0.53 0.54 0.61 0.63
0.03 0.02 0.02 0.03 0.03 0.03 0.03 0.03 0.04 0.05 0.07 0.06 0.04 0.04 0.05 0.05 0.06 0.06 0.08 0.10 0.10 0.11 0.14 0.21 0.34 0.38 0.41 0.47 0.48 0.45 0.39 0.33 0.33 0.34 0.34 0.35 0.36 0.39 0.40 0.43 0.44 0.44 0.50
0.02 0.04 0.04 0.03 0.03 0.03 0.04 0.04 0.04 0.04 0.04 0.06 0.07 0.06 0.06 0.07 0.07 0.07 0.08 0.09 0.10 0.12 0.14 0.19 0.24 0.27 0.28 0.28 0.28 0.29 0.29 0.30 0.30 0.30 0.31 0.33 0.34 0.35 0.34 0.34 0.37 0.40 0.41
0.02 0.03 0.05 0.05 0.04 0.04 0.04 0.05 0.06 0.06 0.06 0.06 0.06 0.08 0.09 0.10 0.10 0.10 0.09 0.10 0.11 0.12 0.13 0.15 0.17 0.17 0.18 0.19 0.21 0.24 0.26 0.29 0.31 0.31 0.30 0.32 0.34 0.35 0.33 0.32 0.32 0.33 0.35
0.02 0.03 0.04 0.04 0.05 0.05 0.05 0.06 0.06 0.07 0.08 0.08 0.08 0.09 0.11 0.12 0.13 0.14 0.14 0.14 0.14 0.14 0.15 0.14 0.15 0.16 0.17 0.19 0.23 0.24 0.25 0.29 0.31 0.32 0.33 0.34 0.36 0.36 0.36 0.36 0.35 0.35 0.35
0.02 0.02 0.03 0.04 0.05 0.06 0.06 0.06 0.07 0.07 0.08 0.09 0.10 0.11 0.13 0.14 0.15 0.16 0.16 0.15 0.15 0.16 0.17 0.17 0.17 0.18 0.20 0.22 0.25 0.27 0.29 0.31 0.33 0.34 0.35 0.37 0.39 0.39 0.38 0.38 0.39 0.40 0.40
0.02 0.03 0.03 0.04 0.05 0.06 0.07 0.07 0.08 0.08 0.09 0.10 0.11 0.13 0.15 0.16 0.16 0.16 0.16 0.15 0.16 0.17 0.18 0.19 0.19 0.19 0.20 0.23 0.26 0.29 0.31 0.32 0.37 0.41 0.44 0.43 0.42 0.42 0.41 0.40 0.40 0.42 0.42
0.02 0.02 0.03 0.04 0.05 0.06 0.07 0.07 0.08 0.09 0.10 0.12 0.13 0.14 0.15 0.17 0.18 0.18 0.18 0.17 0.17 0.17 0.18 0.20 0.21 0.20 0.20 0.23 0.26 0.30 0.32 0.34 0.38 0.44 0.50 0.52 0.48 0.44 0.44 0.42 0.40 0.41 0.44
0.02 0.02 0.03 0.04 0.05 0.07 0.08 0.09 0.09 0.10 0.11 0.13 0.14 0.16 0.16 0.16 0.17 0.18 0.19 0.18 0.18 0.18 0.19 0.21 0.23 0.24 0.23 0.25 0.27 0.31 0.36 0.38 0.38 0.42 0.48 0.54 0.53 0.51 0.49 0.47 0.44 0.42 0.44
0.02 0.02 0.04 0.05 0.06 0.07 0.08 0.10 0.11 0.12 0.13 0.14 0.15 0.16 0.18 0.18 0.18 0.19 0.19 0.19 0.18 0.18 0.18 0.21 0.23 0.24 0.25 0.26 0.28 0.33 0.38 0.37 0.38 0.41 0.46 0.51 0.55 0.55 0.54 0.55 0.52 0.51 0.49